カタログに戻る

THORAD AGENA D DEB

運用中LEO
NORAD 4205·DEBRIS·🇺🇸 United States

打ち上げ Sep 30, 1969 から Vandenberg Space Force Base

Loading…

次のパス (今後24時間)

TLE

最新Source: Space-Track

元期: Sep 13, 2026, 11:47 UTC

1 04205U 69082BU  26256.49103164  .00000290  00000-0  13354-3 0  9995
2 04205  70.0594 283.9221 0062752  38.2028 322.3518 14.29314380114128

AllMySatでTHORAD AGENA D DEBをリアルタイム追跡

Download on the App Store